Location: Central Coast
(33.3208°S, 151.2336°E)
Time: 22:04:49
(UTC+11:00)

Tiangong 2 - Pass Details

Date: 12 October 2017
Orbit: 387 x 389 km, 42.8° (Epoch: 18 December)

Event Time Altitude Azimuth Distance (km) Brightness Sun altitude
Rises 19:32:48 0° 236° (SW) 2,298 6.6 -6.4°
Reaches altitude 10° 19:35:24 10° 215° (SW) 1,438 4.8 -6.9°
Maximum altitude 19:37:39 17° 171° (S) 1,084 3.4 -7.4°
Drops below altitude 10° 19:39:53 10° 127° (SE) 1,434 3.6 -7.9°
Enters shadow 19:41:00 - 115° (ESE) 1,770 4.0 -8.1°
